Preview of NWS' New Version of Forecast
This preview is not operational and should not be used for support decisions.

Regional Weather Roundup (RWR)

Issued by Tampa Bay Area, FL (TBW)

                            
000
NZUS99 KTBW 160716
RWRTBW
Regional Weather Roundup National Weather Service Ruskin Florida
300 AM EDT TUE OCT 16 2018

  
CITY           SKY/WX    TMP DP  RH WIND       PRES   REMARKS
Cross City     FAIR      77  74  92 E3        30.11S                  
Gainesville    FAIR      75  73  93 CALM      30.15S                  
Ocala          FAIR      76  73  91 CALM      30.12F                  
Crystal River  FAIR      73  72  94 CALM      30.11S                  
Leesburg       FAIR      77  75  93 SE6       30.12F                  
Orlando        FAIR      75  72  90 NE5       30.11F                  
Brooksville    FAIR      75  72  90 E3        30.11S                  
Zephyrhills    FAIR      74  73  96 CALM      30.11F                  
Lakeland       FAIR      75  72  88 E3        30.11S                  
Winter Haven   FAIR      76  74  93 E5        30.11F                  
Bartow           N/A     73 N/A N/A NE3       30.10F                  

CITY           SKY/WX    TMP DP  RH WIND       PRES   REMARKS
Tampa Intl     FAIR      79  73  82 E6        30.10S                  
Tampa Exec     FAIR      73  72  94 CALM      30.11S                  
Peter O Knight CLOUDY   N/A N/A N/A E7        30.10S                  
Plant City     FAIR      77  73  88 CALM      30.12S                  
Clearwater     FAIR      78  75  90 SE7       30.09S                  
St Petersburg  FAIR      79  75  87 E8        30.08S                  
Sarasota       FAIR      76  75  97 E6        30.07S                  
Sebring        FAIR      77  73  88 CALM      30.10S                  
Punta Gorda    FAIR      77  74  90 E5        30.10S                  
Ft Myers       FAIR      76  75  97 E5        30.07S                  
Ft Myers-RSW   FAIR      76  75  97 E6        30.07F                  
Naples         FAIR      77  75  93 E6        30.06S                  

STATION/POSITION SKY/WX   TEMP WIND        PRES    VSBY
                          AIR  DIR/SP/G
                          (F)  (DEG/KT/KT) (MB)    (MI)
Keaton Beach               76   CALM  /  1 1019.5F
Sand Key                   83              1016.1F
003 Captiva                81   80/ 10/ 14 1016.7
Venice                     78   90/  6/  8   N/A
Cedar Key                  80  140/ 11/ 12 1019.7S

CITY           SKY/WX    TMP DP  RH WIND       PRES   REMARKS
Tallahassee    MOCLDY    73  72  96 CALM      30.10S                  
Daytona Beach  FAIR      75  75 100 CALM      30.12S                  
Melbourne      FAIR      82  75  79 SE7       30.10F                  
W Palm Beach   FAIR      81  76  84 SE9       30.08F                  
Miami          FAIR      81  77  88 E10       30.06F                  
Key West       FAIR      85  76  74 E17       30.02F                  
San Juan, PR   PTCLDY    79  73  83 SE3       29.95F                  
Cancun, MX     MOCLDY    79  79 100 E10       29.90F